User: anonymous   Login
Location: Unspecified
(0.0000°N, 0.0000°E)
Time: 15:54:10
(UTC+00:00)
Language:

DIWATA 2B (PO-101) - Orbit

View from above orbital plane
View from above orbital plane
View from above satellite
View from above satellite

Ground track
Ground track

The orbit data is extracted from the following two-line orbital elements,

1 43678U 18084H   20191.34293632 -.00000329  00000-0 -27004-4 0  9997
2 43678  97.8871 309.7486 0011253 103.0507 257.1987 14.91633840 92284
Epoch (UTC): 09 July 2020 08:13:49
Eccentricity: 0.0011253
inclination: 97.8871°
perigee height: 585 km
apogee height: 600 km
right ascension of ascending node: 309.7486°
argument of perigee: 103.0507°
revolutions per day: 14.91633840
mean anomaly at epoch: 257.1987°
orbit number at epoch: 9228

The dashed part of the orbit path shows where the satellite is in the earth's shadow,  

DLR